Total_Precipitation_Accumulation
0.45 0.46 0.44 0.41 0.39 0.39 0.47 0.57 0.87 1.15 1.53 1.87 1.86 1.98 2.18 2.16 1.98 1.82 1.79 1.78 1.68 1.65 1.64 1.56 1.52 1.41 1.32 1.21 1.14 1.04 1.01 0.98 1.00 1.06 1.07 1.03 1.01 0.96 0.90 0.85 0.81 0.81 0.82 0.77
0.41 0.39 0.43 0.46 0.48 0.44 0.49 0.61 0.86 1.19 1.65 1.85 1.90 1.94 2.05 2.15 2.03 1.91 1.91 1.98 2.00 2.00 1.94 1.83 1.72 1.58 1.44 1.31 1.17 1.08 1.08 1.06 1.05 1.04 0.99 0.97 0.96 0.92 0.88 0.83 0.80 0.77 0.75 0.73
0.51 0.38 0.59 0.89 0.73 0.65 0.68 0.78 0.96 1.29 1.52 1.56 1.69 1.88 1.92 1.99 2.09 2.07 2.17 2.30 2.34 2.30 2.20 2.02 1.91 1.82 1.65 1.46 1.31 1.26 1.22 1.12 1.07 0.99 0.91 0.88 0.81 0.79 0.82 0.82 0.77 0.71 0.68 0.69
0.61 0.69 1.19 1.14 0.74 0.71 0.84 0.99 1.04 1.11 1.15 1.35 1.56 1.71 1.74 1.89 2.11 2.24 2.26 2.20 2.22 2.19 2.17 2.07 1.96 1.82 1.64 1.47 1.37 1.27 1.17 1.06 0.99 0.92 0.86 0.84 0.83 0.82 0.81 0.80 0.74 0.72 0.71 0.70
0.78 1.09 1.23 1.17 0.82 0.84 1.04 1.33 1.13 1.11 1.09 1.22 1.30 1.48 1.83 1.90 2.04 2.26 2.16 2.05 2.09 2.15 2.14 2.09 1.97 1.77 1.61 1.48 1.33 1.25 1.14 0.96 0.87 0.82 0.77 0.74 0.76 0.78 0.77 0.76 0.73 0.68 0.66 0.67
0.98 1.31 1.53 1.42 0.83 0.69 1.06 1.87 1.44 1.27 1.23 1.20 1.29 1.67 1.83 1.73 1.70 1.79 1.86 1.94 2.05 2.15 2.19 2.12 2.00 1.71 1.55 1.41 1.23 1.09 0.92 0.80 0.76 0.76 0.71 0.68 0.68 0.69 0.69 0.70 0.69 0.64 0.61 0.64
1.10 1.51 1.63 1.04 0.64 0.74 1.48 1.90 1.51 1.37 1.30 1.30 1.43 1.53 1.43 1.37 1.48 1.62 1.78 1.91 1.98 2.00 1.97 1.95 1.88 1.65 1.52 1.36 1.20 0.98 0.78 0.70 0.73 0.71 0.64 0.60 0.62 0.65 0.63 0.60 0.61 0.59 0.58 0.60
1.27 1.64 1.76 0.86 0.69 1.01 1.25 1.07 1.03 1.05 1.05 1.07 1.11 1.11 1.19 1.25 1.32 1.40 1.53 1.70 1.80 1.81 1.79 1.69 1.60 1.48 1.36 1.23 1.02 0.83 0.72 0.68 0.72 0.71 0.52 0.44 0.54 0.57 0.57 0.61 0.59 0.56 0.56 0.55
1.45 1.71 1.35 0.84 0.80 0.79 0.81 0.85 0.82 0.88 0.85 0.86 0.92 0.98 1.11 1.26 1.32 1.35 1.32 1.43 1.48 1.40 1.31 1.32 1.31 1.21 1.11 1.01 0.85 0.73 0.69 0.70 0.69 0.63 0.53 0.46 0.50 0.53 0.57 0.60 0.57 0.50 0.50 0.50
1.26 1.33 1.07 0.81 0.72 0.67 0.59 0.58 0.64 0.79 0.82 0.79 0.78 0.77 0.88 0.99 1.11 1.17 1.14 1.13 1.14 1.11 1.02 0.98 0.99 0.94 0.86 0.75 0.70 0.70 0.73 0.72 0.70 0.64 0.52 0.45 0.47 0.45 0.47 0.50 0.49 0.44 0.44 0.45
1.33 1.34 1.14 0.94 0.77 0.66 0.60 0.59 0.65 0.69 0.68 0.64 0.58 0.59 0.62 0.74 0.83 0.89 0.88 0.83 0.83 0.88 0.84 0.74 0.71 0.70 0.68 0.62 0.59 0.67 0.68 0.61 0.58 0.51 0.49 0.47 0.40 0.30 0.29 0.30 0.29 0.33 0.39 0.38
1.42 1.22 1.13 1.01 0.78 0.63 0.60 0.60 0.56 0.53 0.50 0.52 0.51 0.51 0.53 0.63 0.71 0.74 0.72 0.69 0.72 0.76 0.73 0.67 0.64 0.61 0.57 0.49 0.48 0.57 0.61 0.57 0.50 0.43 0.43 0.40 0.42 0.32 0.22 0.19 0.18 0.18 0.20 0.21
0.90 0.75 0.75 0.72 0.64 0.63 0.54 0.47 0.46 0.43 0.39 0.40 0.41 0.41 0.43 0.49 0.52 0.53 0.58 0.60 0.65 0.66 0.62 0.57 0.57 0.58 0.57 0.49 0.43 0.46 0.49 0.46 0.43 0.39 0.38 0.36 0.39 0.41 0.38 0.25 0.18 0.18 0.18 0.18
0.64 0.65 0.70 0.59 0.48 0.42 0.36 0.33 0.34 0.31 0.33 0.33 0.33 0.32 0.33 0.39 0.41 0.44 0.51 0.51 0.52 0.48 0.47 0.45 0.42 0.44 0.46 0.40 0.35 0.29 0.29 0.28 0.29 0.33 0.34 0.34 0.33 0.32 0.33 0.35 0.35 0.31 0.24 0.21
0.56 0.52 0.54 0.42 0.31 0.29 0.28 0.25 0.28 0.32 0.30 0.30 0.27 0.25 0.25 0.33 0.39 0.41 0.39 0.39 0.40 0.38 0.36 0.37 0.35 0.33 0.33 0.30 0.26 0.22 0.22 0.24 0.23 0.25 0.29 0.29 0.27 0.27 0.28 0.31 0.34 0.34 0.31 0.26
0.45 0.36 0.29 0.28 0.27 0.27 0.26 0.25 0.25 0.28 0.26 0.27 0.25 0.24 0.23 0.28 0.33 0.35 0.31 0.28 0.32 0.30 0.27 0.29 0.30 0.25 0.24 0.23 0.21 0.21 0.17 0.14 0.15 0.17 0.20 0.22 0.20 0.22 0.23 0.26 0.29 0.32 0.32 0.28
0.42 0.37 0.32 0.29 0.24 0.23 0.25 0.27 0.24 0.20 0.20 0.23 0.24 0.21 0.21 0.25 0.30 0.32 0.30 0.26 0.25 0.21 0.20 0.21 0.23 0.20 0.21 0.20 0.16 0.13 0.12 0.09 0.09 0.10 0.12 0.13 0.12 0.13 0.16 0.19 0.24 0.29 0.28 0.25
0.31 0.27 0.26 0.27 0.20 0.18 0.20 0.20 0.19 0.16 0.14 0.16 0.18 0.20 0.21 0.26 0.29 0.27 0.25 0.19 0.19 0.18 0.17 0.15 0.16 0.18 0.20 0.18 0.13 0.10 0.08 0.07 0.09 0.10 0.09 0.08 0.09 0.11 0.14 0.16 0.19 0.24 0.27 0.27
0.20 0.18 0.19 0.20 0.16 0.16 0.19 0.16 0.13 0.09 0.09 0.14 0.18 0.22 0.24 0.23 0.22 0.20 0.18 0.16 0.16 0.17 0.16 0.14 0.17 0.18 0.19 0.16 0.12 0.09 0.07 0.07 0.10 0.11 0.10 0.09 0.10 0.12 0.13 0.14 0.16 0.19 0.22 0.26
0.16 0.15 0.15 0.15 0.14 0.15 0.14 0.09 0.08 0.07 0.10 0.15 0.16 0.17 0.22 0.20 0.18 0.16 0.16 0.16 0.14 0.11 0.09 0.10 0.13 0.16 0.17 0.15 0.12 0.09 0.09 0.11 0.13 0.13 0.10 0.10 0.10 0.11 0.12 0.13 0.15 0.16 0.18 0.22
0.14 0.14 0.16 0.14 0.13 0.12 0.10 0.08 0.09 0.11 0.12 0.13 0.11 0.11 0.15 0.16 0.14 0.15 0.16 0.16 0.13 0.10 0.07 0.09 0.09 0.09 0.10 0.09 0.09 0.09 0.10 0.10 0.10 0.11 0.11 0.12 0.11 0.10 0.11 0.13 0.13 0.12 0.14 0.17
0.18 0.19 0.17 0.16 0.14 0.12 0.11 0.09 0.09 0.09 0.10 0.10 0.09 0.10 0.13 0.15 0.15 0.16 0.15 0.12 0.10 0.09 0.07 0.07 0.07 0.07 0.06 0.05 0.05 0.06 0.08 0.09 0.09 0.08 0.08 0.09 0.11 0.11 0.10 0.10 0.11 0.11 0.11 0.13
0.21 0.21 0.18 0.16 0.15 0.15 0.13 0.10 0.08 0.09 0.09 0.09 0.08 0.09 0.12 0.15 0.16 0.19 0.16 0.10 0.08 0.09 0.07 0.06 0.07 0.07 0.05 0.04 0.04 0.04 0.05 0.06 0.07 0.07 0.07 0.07 0.08 0.08 0.07 0.07 0.09 0.10 0.10 0.10
0.25 0.24 0.18 0.16 0.17 0.21 0.19 0.14 0.13 0.12 0.11 0.10 0.09 0.09 0.10 0.12 0.15 0.16 0.14 0.12 0.11 0.10 0.07 0.08 0.10 0.08 0.06 0.04 0.04 0.04 0.04 0.04 0.03 0.03 0.04 0.06 0.06 0.06 0.06 0.06 0.07 0.08 0.09 0.09
0.30 0.27 0.20 0.20 0.24 0.23 0.18 0.15 0.13 0.13 0.11 0.10 0.09 0.09 0.09 0.10 0.10 0.12 0.12 0.10 0.11 0.09 0.06 0.07 0.10 0.08 0.06 0.05 0.05 0.04 0.04 0.05 0.05 0.04 0.04 0.04 0.05 0.05 0.06 0.07 0.07 0.07 0.08 0.08
0.40 0.35 0.28 0.25 0.24 0.20 0.17 0.17 0.17 0.15 0.12 0.10 0.09 0.09 0.09 0.09 0.09 0.10 0.08 0.08 0.08 0.08 0.06 0.06 0.07 0.07 0.06 0.05 0.04 0.04 0.05 0.06 0.06 0.05 0.05 0.05 0.05 0.05 0.06 0.07 0.07 0.07 0.07 0.08
0.46 0.39 0.32 0.25 0.20 0.17 0.18 0.21 0.18 0.16 0.16 0.14 0.12 0.10 0.08 0.08 0.09 0.10 0.09 0.08 0.08 0.07 0.06 0.08 0.09 0.08 0.06 0.05 0.04 0.05 0.05 0.05 0.05 0.05 0.06 0.06 0.05 0.05 0.06 0.07 0.07 0.08 0.08 0.08